Location: Heppenheim
(49.6410°N, 8.6370°E)
Time: 06:12:06
(UTC+01:00)

ISS - Visible Passes

Search period start: 31 October 2020 00:00
Search period end: 10 November 2020 00:00
Orbit: 417 x 420 km, 51.6° (Epoch: 30 October)

Date Brightness Start Highest point End Pass type
(mag) Time Alt. Az. Time Alt. Az. Time Alt. Az.
31 Oct -1.2 04:24:55 22° ENE 04:24:55 22° ENE 04:26:16 10° ENE visible
31 Oct -3.5 05:57:52 22° WNW 05:59:48 59° N 06:03:08 10° E visible
01 Nov -3.6 05:12:05 62° N 05:12:05 62° N 05:15:19 10° ENE visible
02 Nov -1.1 04:26:17 21° ENE 04:26:17 21° ENE 04:27:32 10° ENE visible
02 Nov -3.6 05:59:13 23° WNW 06:01:09 65° N 06:04:30 10° E visible
03 Nov -3.5 05:13:25 59° NNE 05:13:25 59° NNE 05:16:40 10° E visible
04 Nov -1.1 04:27:37 20° ENE 04:27:37 20° ENE 04:28:50 10° E visible
04 Nov -3.8 06:00:34 24° WNW 06:02:27 89° S 06:05:50 10° ESE visible
05 Nov -3.7 05:14:48 73° NE 05:14:48 73° NE 05:18:02 10° E visible
06 Nov -1.0 04:29:03 20° E 04:29:03 20° E 04:30:12 10° E visible
06 Nov -3.3 06:02:00 25° W 06:03:38 49° SSW 06:06:54 10° SE visible
07 Nov -3.5 05:16:19 60° SSE 05:16:19 60° SSE 05:19:15 10° ESE visible
07 Nov -1.7 06:50:03 10° W 06:52:15 16° SW 06:54:25 10° S visible
08 Nov -0.9 04:30:41 17° ESE 04:30:41 17° ESE 04:31:32 10° ESE visible
08 Nov -2.3 06:03:38 20° WSW 06:04:39 24° SW 06:07:25 10° SSE visible
09 Nov -2.2 05:18:04 27° S 05:18:04 27° S 05:20:06 10° SE visible
